New Richmond, WI

11:04 AM CST on February 12, 2016 (GMT -0600)
New Richmond Municipal

Weather History for KRNH - October, 2011

Change the Weather History Date:

Tuesday, October 18, 2011

  Actual Average (KMSP) Record (KMSP)
Temperature  
Mean Temperature 40 °F 48 °F  
Max Temperature 44 °F 57 °F 87 °F (1950)
Min Temperature 37 °F 39 °F 18 °F (1972)
Degree Days  
Heating Degree Days 24 17  
Month to date heating degree days 247  
Since 1 July heating degree days 420  
Cooling Degree Days 0 0  
Month to date cooling degree days 3  
Year to date cooling degree days 750  
Moisture  
Dew Point 32 °F    
Average Humidity 67    
Maximum Humidity 87    
Minimum Humidity 57    
Precipitation  
Precipitation 0.00 in 0.09 in 1.05 in (1979)
Month to date precipitation 1.59  
Year to date precipitation 26.84  
Snow  
Snow 0.00 in 0.00 in 1.30 in (1976)
Month to date snowfall 0.1  
Since 1 July snowfall 0.1  
Since 1 September snowfall 0.1  
Snow Depth -    
Sea Level Pressure  
Sea Level Pressure 29.95 in    
Wind  
Wind Speed 7 mph (NNW)    
Max Wind Speed 14 mph    
Max Gust Speed 21 mph    
Visibility 10 miles    
Events      
T = Trace of Precipitation, MM = Missing Value Source: NWS Daily Summary

Daily Weather History Graph

Daily Weather History Graph

Search for Another Location

Airport or City:

Trip Planner

Search our weather history database for the weather conditions in past years. The results will help you decide how hot, cold, wet, or windy it might be!

Date:

Astronomy

Oct. 18, 2011 Rise Set
Actual Time 7:29 AM CDT 6:20 PM CDT
Civil Twilight 6:59 AM CDT 6:50 PM CDT
Nautical Twilight 6:25 AM CDT 7:24 PM CDT
Astronomical Twilight 5:51 AM CDT 7:58 PM CDT
Moon 10:52 PM CDT (10/18) 1:30 PM CDT (10/18)
Length of Visible Light 11h 50m
Length of Day
10h 50m
Waning Gibbous, 64% of the Moon is Illuminated
Oct 18
Waning Gibbous
Oct 19
Last Quarter
Oct 26
New
Nov 2
First Quarter
Nov 10
Full

Hourly Weather History & Observations

Time (CDT) Temp. Windchill Dew Point Humidity Pressure Visibility Wind Dir Wind Speed Gust Speed Precip Events Conditions
12:15 AM 37.4 °F 34.9 °F 26.6 °F 65% 29.85 in 10.0 mi WNW 3.5 mph - N/A   Clear
12:35 AM 37.4 °F 32.8 °F 26.6 °F 65% 29.85 in 10.0 mi WNW 5.8 mph - N/A   Mostly Cloudy
1:15 AM 41.0 °F 37.1 °F 28.4 °F 61% 29.85 in 10.0 mi NW 5.8 mph - N/A   Overcast
1:35 AM 41.0 °F 38.0 °F 28.4 °F 61% 29.84 in 10.0 mi NW 4.6 mph - N/A   Overcast
1:55 AM 41.0 °F 37.1 °F 28.4 °F 61% 29.84 in 10.0 mi NW 5.8 mph - N/A   Overcast
2:15 AM 41.0 °F 38.0 °F 28.4 °F 61% 29.84 in 10.0 mi NW 4.6 mph - N/A   Overcast
2:55 AM 42.8 °F 39.3 °F 30.2 °F 61% 29.84 in 10.0 mi NNW 5.8 mph - N/A   Overcast
3:15 AM 42.8 °F 37.5 °F 32.0 °F 66% 29.85 in 10.0 mi NNW 9.2 mph - N/A   Overcast
3:35 AM 42.8 °F 38.0 °F 32.0 °F 66% 29.85 in 10.0 mi North 8.1 mph - N/A   Overcast
3:55 AM 42.8 °F 36.2 °F 32.0 °F 66% 29.86 in 10.0 mi North 12.7 mph - N/A   Overcast
4:15 AM 42.8 °F 37.5 °F 32.0 °F 66% 29.86 in 10.0 mi North 9.2 mph - N/A   Overcast
4:35 AM 41.0 °F 35.8 °F 32.0 °F 70% 29.87 in 10.0 mi North 8.1 mph - N/A   Mostly Cloudy
4:55 AM 39.2 °F 35.0 °F 32.0 °F 75% 29.88 in 10.0 mi North 5.8 mph - N/A   Scattered Clouds
5:15 AM 39.2 °F 34.2 °F 32.0 °F 75% 29.89 in 10.0 mi North 6.9 mph - N/A   Scattered Clouds
5:35 AM 37.4 °F 32.8 °F 32.0 °F 81% 29.90 in 10.0 mi North 5.8 mph - N/A   Scattered Clouds
6:15 AM 37.4 °F 33.8 °F 32.0 °F 81% 29.91 in 10.0 mi North 4.6 mph - N/A   Scattered Clouds
6:35 AM 37.4 °F - 32.0 °F 81% 29.92 in 10.0 mi Calm Calm - N/A   Overcast
6:55 AM 37.4 °F - 32.0 °F 81% 29.92 in 10.0 mi Calm Calm - N/A   Overcast
7:15 AM 39.2 °F 37.0 °F 32.0 °F 75% 29.92 in 10.0 mi NW 3.5 mph - N/A   Overcast
7:35 AM 39.2 °F 37.0 °F 32.0 °F 75% 29.93 in 10.0 mi NW 3.5 mph - N/A   Overcast
7:55 AM 41.0 °F 38.0 °F 32.0 °F 70% 29.94 in 10.0 mi NNW 4.6 mph - N/A   Overcast
8:15 AM 41.0 °F 37.1 °F 33.8 °F 76% 29.94 in 10.0 mi NNW 5.8 mph - N/A   Overcast
8:35 AM 41.0 °F 35.2 °F 32.0 °F 70% 29.95 in 10.0 mi NNW 9.2 mph - N/A   Overcast
8:55 AM 42.8 °F 38.6 °F 32.0 °F 66% 29.96 in 10.0 mi North 6.9 mph - N/A   Overcast
9:15 AM 42.8 °F 36.6 °F 32.0 °F 66% 29.96 in 10.0 mi NW 11.5 mph - N/A   Overcast
9:35 AM 42.8 °F 36.6 °F 32.0 °F 66% 29.96 in 10.0 mi NNW 11.5 mph - N/A   Overcast
9:55 AM 42.8 °F 36.2 °F 32.0 °F 66% 29.96 in 10.0 mi NNW 12.7 mph - N/A   Overcast
10:15 AM 44.6 °F 39.2 °F 32.0 °F 61% 29.96 in 10.0 mi NNW 10.4 mph 16.1 mph N/A   Overcast
10:35 AM 44.6 °F 38.1 °F 32.0 °F 61% 29.97 in 10.0 mi NNW 13.8 mph 20.7 mph N/A   Mostly Cloudy
10:55 AM 42.8 °F 36.6 °F 32.0 °F 66% 29.97 in 10.0 mi NNW 11.5 mph 18.4 mph N/A   Overcast
11:15 AM 44.6 °F 38.8 °F 32.0 °F 61% 29.97 in 10.0 mi NNW 11.5 mph 20.7 mph N/A   Overcast
11:55 AM 44.6 °F 38.4 °F 30.2 °F 57% 29.97 in 10.0 mi North 12.7 mph 19.6 mph N/A   Overcast
12:15 PM 44.6 °F 38.8 °F 30.2 °F 57% 29.97 in 10.0 mi NNW 11.5 mph 17.3 mph N/A   Overcast
12:35 PM 44.6 °F 39.2 °F 32.0 °F 61% 29.97 in 10.0 mi NNW 10.4 mph 17.3 mph N/A   Overcast
12:55 PM 44.6 °F 38.8 °F 32.0 °F 61% 29.97 in 10.0 mi NNW 11.5 mph 16.1 mph N/A   Overcast
1:15 PM 44.6 °F 38.8 °F 30.2 °F 57% 29.97 in 10.0 mi NNW 11.5 mph 19.6 mph N/A   Overcast
1:35 PM 44.6 °F 38.8 °F 30.2 °F 57% 29.96 in 10.0 mi North 11.5 mph 18.4 mph N/A   Overcast
1:55 PM 44.6 °F 39.2 °F 32.0 °F 61% 29.96 in 10.0 mi NNW 10.4 mph 17.3 mph N/A   Overcast
2:15 PM 44.6 °F 39.2 °F 32.0 °F 61% 29.96 in 10.0 mi NNW 10.4 mph - N/A   Overcast
2:35 PM 44.6 °F 39.7 °F 32.0 °F 61% 29.96 in 10.0 mi NNW 9.2 mph - N/A   Overcast
2:55 PM 44.6 °F 38.8 °F 32.0 °F 61% 29.96 in 10.0 mi North 11.5 mph - N/A   Overcast
3:15 PM 44.6 °F 38.4 °F 32.0 °F 61% 29.96 in 10.0 mi NNW 12.7 mph - N/A   Overcast
3:35 PM 44.6 °F 40.2 °F 32.0 °F 61% 29.96 in 10.0 mi North 8.1 mph 17.3 mph N/A   Overcast
3:55 PM 44.6 °F 39.7 °F 32.0 °F 61% 29.97 in 10.0 mi North 9.2 mph - N/A   Overcast
4:15 PM 44.6 °F 39.2 °F 32.0 °F 61% 29.97 in 10.0 mi North 10.4 mph 17.3 mph N/A   Overcast
4:35 PM 44.6 °F 39.7 °F 32.0 °F 61% 29.97 in 10.0 mi North 9.2 mph 17.3 mph N/A   Overcast
4:55 PM 42.8 °F 37.5 °F 32.0 °F 66% 29.98 in 10.0 mi NNW 9.2 mph - N/A   Overcast
5:15 PM 42.8 °F 37.0 °F 32.0 °F 66% 29.98 in 10.0 mi North 10.4 mph - N/A   Overcast
5:35 PM 42.8 °F 37.5 °F 32.0 °F 66% 29.99 in 10.0 mi NNW 9.2 mph - N/A   Overcast
5:55 PM 42.8 °F 37.5 °F 32.0 °F 66% 29.99 in 10.0 mi NNW 9.2 mph - N/A   Overcast
6:15 PM 42.8 °F 39.3 °F 32.0 °F 66% 30.00 in 10.0 mi NNW 5.8 mph - N/A   Overcast
6:35 PM 42.8 °F 37.0 °F 32.0 °F 66% 30.01 in 10.0 mi North 10.4 mph - N/A   Overcast
6:55 PM 42.8 °F 37.0 °F 32.0 °F 66% 30.02 in 10.0 mi North 10.4 mph 18.4 mph N/A   Overcast
7:15 PM 41.0 °F 35.8 °F 33.8 °F 76% 30.02 in 10.0 mi North 8.1 mph - N/A   Overcast
7:35 PM 41.0 °F 37.1 °F 33.8 °F 76% 30.03 in 10.0 mi North 5.8 mph - N/A   Overcast
8:15 PM 41.0 °F 35.8 °F 33.8 °F 76% 30.04 in 10.0 mi North 8.1 mph - N/A   Overcast
8:35 PM 41.0 °F 35.8 °F 33.8 °F 76% 30.04 in 10.0 mi NNE 8.1 mph - N/A   Overcast
8:55 PM 41.0 °F 35.8 °F 33.8 °F 76% 30.04 in 10.0 mi NNE 8.1 mph - N/A   Overcast
9:15 PM 39.2 °F 32.5 °F 33.8 °F 81% 30.04 in 10.0 mi North 10.4 mph - N/A   Overcast
9:35 PM 37.4 °F 32.1 °F 33.8 °F 87% 30.04 in 10.0 mi North 6.9 mph - N/A   Overcast
10:15 PM 37.4 °F 29.8 °F 33.8 °F 87% 30.04 in 10.0 mi North 11.5 mph - N/A   Overcast
10:35 PM 37.4 °F 29.8 °F 33.8 °F 87% 30.04 in 10.0 mi North 11.5 mph - N/A   Light Drizzle
10:55 PM 37.4 °F 30.8 °F 33.8 °F 87% 30.04 in 10.0 mi North 9.2 mph - N/A   Overcast
11:15 PM 37.4 °F 32.1 °F 33.8 °F 87% 30.04 in 10.0 mi North 6.9 mph - N/A   Overcast
11:35 PM 37.4 °F 30.8 °F 33.8 °F 87% 30.04 in 10.0 mi North 9.2 mph - N/A   Overcast
11:55 PM 37.4 °F 31.4 °F 33.8 °F 87% 30.04 in 10.0 mi North 8.1 mph - N/A   Overcast